User: anonymous
Location: South Tamworth Observatory
(43.8246°N, 71.3026°W)
Time: 05:28:28
(UTC-04:00)
Language:

Cosmos 2208 Rocket - Orbit

View from above orbital plane
View from above orbital plane
View from above satellite
View from above satellite

Ground track
Ground track

The orbit data is extracted from the following two-line orbital elements,

1 22081U 92053B   14257.36876548  .00000127  00000-0  55507-4 0  6665
2 22081 074.0433 116.7355 0036664 331.4147 028.4993 14.33098515154590
Epoch (UTC): 14 September 2014 08:51:01
Eccentricity: 0.0036664
inclination: 74.0433°
perigee height: 755 km
apogee height: 807 km
right ascension of ascending node: 116.7355°
argument of perigee: 331.4147°
revolutions per day: 14.33098515
mean anomaly at epoch: 28.4993°
orbit number at epoch: 15459

The dashed part of the orbit path shows where the satellite is in the earth's shadow,  

DLR